Flag for Germany Weather past 2 weeks in Cologne, North Rhine-Westphalia, Germany

Now
61 °F

Clear.


Feels Like: 61 °F
Forecast: 57 / 78 °F
Wind: 1 mph from South

Location: Koeln / Bonn

Current Time: Jul 26, 2014 at 1:44:05 AM

Latest Report: Jul 26, 2014 at 1:20 AM


Visibility: 10 mi

Pressure: 29.92 "Hg

Humidity: 94%

Dew point: 59 °F

Location of CologneLocation

Historic Weather in Cologne — Graph

°F

Cologne temperature yesterday

Maximum temperature yesterday: 77 °F (at 5:50 PM)
Minimum temperature yesterday: 54 °F (at 4:20 AM)
Average temperature yesterday: 65 °F

Past Weeks' High & Low Weather Summary

 TemperatureHumidityPressure
High91 °F (Jul 19, 2:50 PM)100% (Jul 11, 2:50 AM)30.18 "Hg (Jul 11, 2:50 AM)
Low54 °F (Jul 25, 4:20 AM)26% (Jul 19, 2:50 PM)29.74 "Hg (Jul 13, 5:20 PM)
Average70 °F74%29.97 "Hg
* Reported Jul 11 12:20 AM — Jul 26 12:50 AM, Cologne, Weather by CustomWeather, © 2014

Note: Actual official high and low records may vary slightly from our data, if they occured in-between our weather recording intervals... More about our weather records

Advertising

Cologne weather history for previous 24 hours

 ConditionsComfort  
Time TempWeatherWind HumidityBarometerVisibility
12:50 AM
Jul 26
63 °FClear.2 mph88%29.92 "Hg10 mi
12:20 AM63 °FClear.1 mph94%29.92 "Hg10 mi
11:50 PM
Jul 25
64 °FClear.2 mph88%29.92 "Hg10 mi
11:20 PM64 °FClear.2 mph88%29.92 "Hg10 mi
10:50 PM64 °FClear.2 mph88%29.92 "Hg10 mi
10:20 PM66 °FSunny.6 mph83%29.92 "Hg10 mi
9:50 PM68 °FScattered clouds.6 mph78%29.92 "HgN/A
9:20 PM68 °FPassing clouds.5 mph78%29.89 "HgN/A
8:50 PM70 °FPassing clouds.5 mph73%29.89 "HgN/A
8:20 PM72 °FScattered clouds.6 mph69%29.89 "HgN/A
7:50 PM73 °FScattered clouds.6 mph61%29.89 "HgN/A
7:20 PM73 °FScattered clouds.8 mph57%29.89 "HgN/A
6:50 PM75 °FScattered clouds.7 mph54%29.89 "HgN/A
6:20 PM75 °FScattered clouds.7 mph54%29.89 "HgN/A
5:50 PM77 °FScattered clouds.5 mph51%29.89 "HgN/A
5:20 PM75 °FScattered clouds.5 mph54%29.89 "HgN/A
4:50 PM75 °FScattered clouds.6 mph54%29.89 "HgN/A
4:20 PM75 °FScattered clouds.1 mph54%29.92 "HgN/A
3:50 PM75 °FScattered clouds.5 mph54%29.92 "HgN/A
3:20 PM75 °FScattered clouds.6 mph57%29.92 "HgN/A
2:20 PM73 °FScattered clouds.6 mph61%29.92 "HgN/A
1:50 PM72 °FScattered clouds.3 mph69%29.95 "HgN/A
1:20 PM70 °FScattered clouds.7 mph69%29.95 "HgN/A
12:50 PM70 °FScattered clouds.6 mph69%29.95 "HgN/A
12:20 PM68 °FScattered clouds.6 mph73%29.95 "HgN/A
11:50 AM68 °FScattered clouds.3 mph73%29.95 "HgN/A
11:20 AM70 °FScattered clouds.3 mph69%29.98 "HgN/A
10:50 AM68 °FScattered clouds.2 mph73%29.98 "HgN/A
10:20 AM66 °FScattered clouds.3 mph78%29.98 "HgN/A
9:50 AM66 °FPassing clouds.2 mph78%29.98 "HgN/A
9:20 AM64 °FPassing clouds.1 mph83%29.98 "HgN/A
8:50 AM61 °FPassing clouds.2 mph94%29.98 "HgN/A
8:20 AM59 °FPassing clouds.1 mph100%29.98 "HgN/A
7:50 AM57 °FSunny.3 mph94%29.95 "Hg10 mi
7:20 AM57 °FSunny.2 mph100%29.95 "Hg10 mi
6:50 AM55 °FFog.3 mph100%29.95 "HgN/A
6:20 AM55 °FFog.3 mph100%29.95 "HgN/A
5:50 AM55 °FCool.5 mph100%29.98 "HgN/A
5:20 AM55 °FFog.6 mph100%29.98 "Hg1 mi
4:50 AM55 °FFog.2 mph100%29.98 "HgN/A
4:20 AM54 °FFog.6 mph100%29.95 "HgN/A
3:50 AM55 °FFog.3 mph94%29.95 "HgN/A
3:20 AM57 °FFog.3 mph94%29.95 "HgN/A
2:50 AM57 °FFog.5 mph100%29.98 "HgN/A
2:20 AM59 °FFog.3 mph94%29.98 "HgN/A
1:50 AM59 °FFog.2 mph94%29.98 "HgN/A
1:20 AM59 °FClear.1 mph94%29.98 "Hg10 mi
Weather by CustomWeather, © 2014

See weather overviewHow to use our weather pages